Location: Unspecified
(44.0704°N, 88.6889°W)
Time: 10:53:34
(UTC+02:00)

Vanguard 2 Rocket - Pass Details

Date: 09 August 2020
Orbit: 554 x 3326 km, 32.9° (Epoch: 22 September)

Event Time Altitude Azimuth Distance (km) Brightness Sun altitude
Rises 04:58:57 0° 262° (W) 4,472 11.0 -17.3°
Reaches altitude 10° 05:01:35 10° 256° (WSW) 3,795 10.5 -17.6°
Maximum altitude 05:11:35 48° 186° (S) 2,796 9.0 -18.9°
Enters shadow 05:21:22 25° 130° (SE) 4,500 9.8 -20.1°
